• în România
  • Lista ţărilor
  • Pe 7 zile
  • Temperatura apei
  • Hartă satelitară
  • Meteo pe hartă
  • Widget-uri
  • user-avatar
    Intrare

    Meteo pe oră la Caracas

    Astăzi, 20 Octombrie, Sâmbătă

    Timp Temperatura Precipitaţii Vânt Presiune Umiditate
    00:00 +18°C° 2.4 mm 2 m/s 647 mmHg 97%
    01:00 +18°C° 2.4 mm 2 m/s 647 mmHg 97%
    02:00 +18°C° 2.4 mm 2 m/s 647 mmHg 97%
    03:00 +17°C° 2.6 mm 2 m/s 647 mmHg 97%
    04:00 +18°C° 2.6 mm 1 m/s 647 mmHg 97%
    05:00 +18°C° 2.6 mm 1 m/s 647 mmHg 97%
    06:00 +19°C° 1.8 mm 1 m/s 647 mmHg 96%
    07:00 +19°C° 1.8 mm 1 m/s 647 mmHg 96%
    08:00 +19°C° 1.8 mm 1 m/s 648 mmHg 96%
    09:00 +20°C° 1 mm 1 m/s 648 mmHg 94%
    10:00 +21°C° 1 mm 1 m/s 648 mmHg 92%
    11:00 +21°C° 1 mm 1 m/s 649 mmHg 90%
    12:00 +22°C° 1.3 mm 1 m/s 648 mmHg 90%
    13:00 +22°C° 1.3 mm 1 m/s 647 mmHg 89%
    14:00 +22°C° 1.3 mm 1 m/s 647 mmHg 89%
    15:00 +22°C° 1.2 mm 1 m/s 646 mmHg 91%
    16:00 +21°C° 1.2 mm 1 m/s 646 mmHg 92%
    17:00 +21°C° 1.2 mm 1 m/s 645 mmHg 94%
    18:00 +20°C° 1.3 mm 1 m/s 646 mmHg 94%
    19:00 +20°C° 1.3 mm 1 m/s 646 mmHg 95%
    20:00 +19°C° 1.3 mm 1 m/s 647 mmHg 96%
    21:00 +19°C° 1.5 mm 1 m/s 647 mmHg 96%
    22:00 +19°C° 1.5 mm 1 m/s 647 mmHg 96%
    23:00 +19°C° 1.5 mm 1 m/s 647 mmHg 97%

    Mâine, 21 Octombrie, Duminică

    Timp Temperatura Precipitaţii Vânt Presiune Umiditate
    00:00 +19°C° 0.3 mm 1 m/s 647 mmHg 97%
    01:00 +19°C° 0.3 mm 1 m/s 646 mmHg 97%
    02:00 +19°C° 0.3 mm 1 m/s 646 mmHg 97%
    03:00 +19°C° 0.3 mm 1 m/s 646 mmHg 97%
    04:00 +19°C° 0.3 mm 1 m/s 646 mmHg 97%
    05:00 +19°C° 0.3 mm 1 m/s 646 mmHg 97%
    06:00 +19°C° 0.4 mm 1 m/s 647 mmHg 96%
    07:00 +19°C° 0.4 mm 1 m/s 647 mmHg 96%
    08:00 +20°C° 0.4 mm 1 m/s 648 mmHg 95%
    09:00 +21°C° 0.4 mm 1 m/s 648 mmHg 93%
    10:00 +21°C° 0.4 mm 1 m/s 648 mmHg 91%
    11:00 +22°C° 0.4 mm 1 m/s 649 mmHg 88%
    12:00 +22°C° 0.7 mm 1 m/s 648 mmHg 87%
    13:00 +22°C° 0.7 mm 1 m/s 647 mmHg 86%
    14:00 +23°C° 0.7 mm 1 m/s 647 mmHg 85%
    15:00 +22°C° 0.5 mm 1 m/s 646 mmHg 86%
    16:00 +22°C° 0.5 mm 1 m/s 646 mmHg 87%
    17:00 +21°C° 0.5 mm 1 m/s 646 mmHg 87%
    18:00 +21°C° 0.1 mm 1 m/s 646 mmHg 90%
    19:00 +20°C° 0.1 mm 1 m/s 646 mmHg 93%
    20:00 +19°C° 0.1 mm 1 m/s 647 mmHg 96%
    21:00 +19°C° 0.1 mm 1 m/s 647 mmHg 96%
    22:00 +18°C° 0.1 mm 1 m/s 647 mmHg 96%
    23:00 +18°C° 0.1 mm 1 m/s 647 mmHg 96%

    Poimâine, 22 Octombrie, Luni

    Timp Temperatura Precipitaţii Vânt Presiune Umiditate
    00:00 +18°C° 0.1 mm 1 m/s 647 mmHg 96%
    01:00 +18°C° 0.1 mm 1 m/s 647 mmHg 96%
    02:00 +18°C° 0.1 mm 1 m/s 646 mmHg 96%
    03:00 +18°C° 0 mm 1 m/s 646 mmHg 96%
    04:00 +18°C° 0 mm 1 m/s 646 mmHg 96%
    05:00 +18°C° 0 mm 1 m/s 646 mmHg 96%
    06:00 +19°C° 0 mm 1 m/s 646 mmHg 94%
    07:00 +19°C° 0 mm 1 m/s 647 mmHg 92%
    08:00 +20°C° 0 mm 1 m/s 648 mmHg 90%
    09:00 +21°C° 0.1 mm 1 m/s 648 mmHg 84%
    10:00 +23°C° 0.1 mm 2 m/s 649 mmHg 78%
    11:00 +24°C° 0.1 mm 2 m/s 649 mmHg 71%
    12:00 +24°C° 0.5 mm 2 m/s 649 mmHg 75%
    13:00 +24°C° 0.5 mm 2 m/s 648 mmHg 79%
    14:00 +23°C° 0.5 mm 2 m/s 647 mmHg 83%
    15:00 +23°C° 0.5 mm 2 m/s 647 mmHg 85%
    16:00 +21°C° 0.5 mm 2 m/s 647 mmHg 86%
    17:00 +21°C° 0.5 mm 2 m/s 646 mmHg 87%
    18:00 +21°C° 0.1 mm 1 m/s 646 mmHg 90%
    19:00 +20°C° 0.1 mm 1 m/s 647 mmHg 93%
    20:00 +19°C° 0.1 mm 1 m/s 647 mmHg 96%
    21:00 +19°C° 0 mm 1 m/s 647 mmHg 96%
    22:00 +18°C° 0 mm 1 m/s 647 mmHg 96%
    23:00 +18°C° 0 mm 1 m/s 647 mmHg 95%

    23 Octombrie, Marţi

    Timp Temperatura Precipitaţii Vânt Presiune Umiditate
    00:00 +18°C° 0 mm 1 m/s 647 mmHg 95%
    01:00 +18°C° 0 mm 1 m/s 647 mmHg 96%
    02:00 +18°C° 0 mm 1 m/s 646 mmHg 96%
    03:00 +18°C° 0 mm 1 m/s 646 mmHg 96%
    04:00 +18°C° 0 mm 1 m/s 646 mmHg 96%
    05:00 +18°C° 0 mm 1 m/s 646 mmHg 95%
    06:00 +19°C° 0 mm 1 m/s 647 mmHg 94%
    07:00 +19°C° 0 mm 1 m/s 647 mmHg 92%
    08:00 +20°C° 0 mm 1 m/s 648 mmHg 91%
    09:00 +21°C° 0.2 mm 1 m/s 648 mmHg 86%
    10:00 +23°C° 0.2 mm 1 m/s 649 mmHg 81%
    11:00 +24°C° 0.2 mm 1 m/s 649 mmHg 76%
    12:00 +24°C° 0.7 mm 1 m/s 648 mmHg 79%
    13:00 +24°C° 0.7 mm 1 m/s 648 mmHg 82%
    14:00 +24°C° 0.7 mm 2 m/s 647 mmHg 85%
    15:00 +23°C° 0.7 mm 1 m/s 647 mmHg 88%
    16:00 +22°C° 0.7 mm 1 m/s 646 mmHg 90%
    17:00 +21°C° 0.7 mm 1 m/s 646 mmHg 93%
    18:00 +21°C° 0.2 mm 1 m/s 647 mmHg 94%
    19:00 +20°C° 0.2 mm 1 m/s 647 mmHg 96%
    20:00 +20°C° 0.2 mm 1 m/s 647 mmHg 97%
    21:00 +19°C° 0.1 mm 1 m/s 648 mmHg 97%
    22:00 +19°C° 0.1 mm 1 m/s 648 mmHg 97%
    23:00 +19°C° 0.1 mm 1 m/s 648 mmHg 97%

    24 Octombrie, Miercuri

    Timp Temperatura Precipitaţii Vânt Presiune Umiditate
    00:00 +19°C° 0 mm 1 m/s 647 mmHg 97%
    01:00 +17°C° 0 mm 0 m/s 647 mmHg 97%
    02:00 +17°C° 0 mm 0 m/s 647 mmHg 96%
    03:00 +17°C° 0.3 mm 0 m/s 647 mmHg 96%
    04:00 +16°C° 0.3 mm 0 m/s 647 mmHg 96%
    05:00 +16°C° 0.3 mm 0 m/s 647 mmHg 96%
    06:00 +17°C° 0.5 mm 0 m/s 648 mmHg 95%
    07:00 +17°C° 0.5 mm 0 m/s 648 mmHg 94%
    08:00 +18°C° 0.5 mm 0 m/s 649 mmHg 93%
    09:00 +19°C° 0.3 mm 0 m/s 649 mmHg 89%
    10:00 +20°C° 0.3 mm 0 m/s 649 mmHg 86%
    11:00 +21°C° 0.3 mm 0 m/s 650 mmHg 82%
    12:00 +21°C° 0.8 mm 0 m/s 649 mmHg 83%
    13:00 +21°C° 0.8 mm 0 m/s 648 mmHg 84%
    14:00 +20°C° 0.8 mm 0 m/s 648 mmHg 85%
    15:00 +22°C° 0.4 mm 1 m/s 647 mmHg 86%
    16:00 +22°C° 0.4 mm 1 m/s 647 mmHg 87%
    17:00 +22°C° 0.4 mm 1 m/s 647 mmHg 88%
    18:00 +21°C° 1.1 mm 1 m/s 647 mmHg 91%
    19:00 +20°C° 1.1 mm 1 m/s 648 mmHg 93%
    20:00 +19°C° 1.1 mm 1 m/s 648 mmHg 96%
    21:00 +19°C° 1.3 mm 1 m/s 648 mmHg 95%
    22:00 +19°C° 1.3 mm 1 m/s 648 mmHg 95%
    23:00 +19°C° 1.3 mm 1 m/s 648 mmHg 95%

    25 Octombrie, Joi

    Timp Temperatura Precipitaţii Vânt Presiune Umiditate
    00:00 +19°C° 1 mm 1 m/s 648 mmHg 95%
    01:00 +19°C° 0.9 mm 1 m/s 647 mmHg 95%
    02:00 +19°C° 0.9 mm 1 m/s 647 mmHg 95%
    03:00 +19°C° 1 mm 1 m/s 647 mmHg 95%
    04:00 +18°C° 1 mm 1 m/s 647 mmHg 95%
    05:00 +18°C° 1 mm 1 m/s 647 mmHg 95%
    06:00 +19°C° 0.5 mm 1 m/s 648 mmHg 94%
    07:00 +19°C° 0.5 mm 1 m/s 648 mmHg 94%
    08:00 +19°C° 0.5 mm 1 m/s 649 mmHg 93%
    09:00 +20°C° 0.5 mm 1 m/s 649 mmHg 90%
    10:00 +20°C° 0.5 mm 1 m/s 649 mmHg 88%
    11:00 +21°C° 0.5 mm 1 m/s 649 mmHg 85%
    12:00 +21°C° 0.7 mm 1 m/s 649 mmHg 86%
    13:00 +21°C° 0.7 mm 1 m/s 648 mmHg 86%
    14:00 +21°C° 0.7 mm 1 m/s 647 mmHg 87%
    15:00 +21°C° 0.6 mm 1 m/s 647 mmHg 87%
    16:00 +21°C° 0.6 mm 1 m/s 647 mmHg 87%
    17:00 +21°C° 0.6 mm 1 m/s 647 mmHg 87%
    18:00 +20°C° 0.6 mm 1 m/s 647 mmHg 89%
    19:00 +20°C° 0.6 mm 1 m/s 647 mmHg 90%
    20:00 +19°C° 0.6 mm 1 m/s 648 mmHg 91%
    21:00 +19°C° 0.8 mm 1 m/s 648 mmHg 92%
    22:00 +19°C° 0.8 mm 1 m/s 648 mmHg 92%
    23:00 +19°C° 0.8 mm 1 m/s 648 mmHg 92%
    Arată mai mult